STARLINK-34295

Last updated on Thu Jul 03 2025 00:02:07 GMT+0000 (Coordinated Universal Time)

1 64455U 25130T 25183.58335648 -.00113774 00000+0 -78156-3 0 9990 2 64455 53.1563 179.7408 0001129 67.8322 68.2957 15.74232704 3517
UTC large
Height (km)
Speed (km/s)
/
Latitude / Longitude
Inclination (degrees)
Orbital Period (minutes)
Azimuth
Elevation
Range (km)
Doppler Factor

Next 0 passes for location: London (51.5072 / 0.1276)

Sorry there are no passes over London.